Weather History for Pompano Beach, FL

Change the Weather History Date:

Friday, April 19, 2013

  Actual Average Record
Temperature  
Mean Temperature 82 °F -  
Max Temperature 86 °F 84 °F 93 °F (1969)
Min Temperature 78 °F 65 °F 50 °F (1956)
Cooling Degree Days 17    
Growing Degree Days 32 (Base 50)    
Moisture  
Dew Point 73 °F    
Average Humidity 76    
Maximum Humidity 90    
Minimum Humidity 63    
Precipitation  
Precipitation 0.02 in - - ()
Sea Level Pressure  
Sea Level Pressure 30.03 in    
Wind  
Wind Speed 14 mph (SE)    
Max Wind Speed 20 mph    
Max Gust Speed 26 mph    
Visibility 10 miles    
Events Rain    
Averages and records for this station are not official NWS values.
T = Trace of Precipitation, MM = Missing Value Source: NWS Daily Summary

Daily Weather History Graph

Daily Weather History Graph

Search for Another Location

Airport:

Trip Planner

Search our weather history database for the weather conditions in past years. The results will help you decide how hot, cold, wet, or windy it might be!

Date:

Astronomy

Apr. 19, 2013 Rise Set
Actual Time 6:53 AM EDT 7:46 PM EDT
Civil Twilight 6:29 AM EDT 8:10 PM EDT
Nautical Twilight 6:01 AM EDT 8:38 PM EDT
Astronomical Twilight 5:32 AM EDT 9:06 PM EDT
Moon 2:03 PM EDT (4/19) 2:31 AM EDT (4/19)
Length of Visible Light 13h 40m
Length of Day
12h 53m
First Quarter, 61% of the Moon is Illuminated
Apr 19
First Quarter
Apr 25
Full
May 2
Last Quarter
May 9
New
May 18
First Quarter

Hourly Weather History & Observations

Time (EDT) Temp. Heat Index Dew Point Humidity Pressure Visibility Wind Dir Wind Speed Gust Speed Precip Events Conditions
12:53 AM 79.0 °F - 73.9 °F 84% 30.04 in 10.0 mi SSE 12.7 mph 24.2 mph N/A   Clear
1:53 AM 79.0 °F - 73.0 °F 82% 30.02 in 10.0 mi SE 15.0 mph 21.9 mph N/A   Scattered Clouds
2:53 AM 79.0 °F - 72.0 °F 79% 30.01 in 10.0 mi SE 17.3 mph 24.2 mph N/A   Mostly Cloudy
3:53 AM 79.0 °F - 73.0 °F 82% 30.01 in 10.0 mi SE 13.8 mph - N/A   Mostly Cloudy
4:53 AM 79.0 °F - 72.0 °F 79% 30.01 in 10.0 mi SSE 13.8 mph - N/A   Overcast
5:53 AM 79.0 °F - 70.0 °F 74% 30.01 in 10.0 mi SE 15.0 mph 20.7 mph N/A   Scattered Clouds
6:53 AM 78.1 °F - 71.1 °F 79% 30.03 in 10.0 mi SSE 10.4 mph - N/A   Partly Cloudy
7:53 AM 79.0 °F - 72.0 °F 79% 30.04 in 10.0 mi SE 15.0 mph 20.7 mph N/A   Partly Cloudy
8:53 AM 81.0 °F 85.2 °F 72.0 °F 74% 30.05 in 10.0 mi SE 19.6 mph - N/A   Scattered Clouds
9:53 AM 82.0 °F 87.4 °F 73.0 °F 74% 30.06 in 10.0 mi SSE 15.0 mph - N/A   Scattered Clouds
10:53 AM 84.0 °F 89.6 °F 72.0 °F 67% 30.06 in 10.0 mi SSE 18.4 mph 23.0 mph N/A   Scattered Clouds
11:53 AM 84.9 °F 91.4 °F 73.0 °F 67% 30.06 in 10.0 mi SE 18.4 mph 24.2 mph N/A   Scattered Clouds
12:53 PM 84.9 °F 90.7 °F 72.0 °F 65% 30.06 in 10.0 mi SSE 16.1 mph - N/A   Scattered Clouds
1:53 PM 86.0 °F 93.0 °F 73.0 °F 65% 30.04 in 10.0 mi SSE 18.4 mph 25.3 mph N/A   Scattered Clouds
2:53 PM 84.9 °F 90.1 °F 71.1 °F 63% 30.03 in 10.0 mi SSE 19.6 mph 26.5 mph N/A   Scattered Clouds
3:53 PM 84.0 °F 89.0 °F 71.1 °F 65% 30.01 in 10.0 mi SSE 19.6 mph 25.3 mph N/A   Clear
4:53 PM 84.0 °F 89.0 °F 71.1 °F 65% 29.99 in 10.0 mi SSE 15.0 mph - N/A   Clear
5:53 PM 82.9 °F 87.5 °F 71.1 °F 67% 29.99 in 10.0 mi SE 15.0 mph 21.9 mph N/A   Clear
6:53 PM 81.0 °F 85.2 °F 72.0 °F 74% 29.99 in 10.0 mi SE 16.1 mph 20.7 mph N/A   Clear
7:53 PM 80.1 °F 84.5 °F 73.9 °F 81% 29.99 in 10.0 mi SSE 12.7 mph - N/A   Clear
8:51 PM 80.6 °F 86.2 °F 75.2 °F 84% 30.03 in 10.0 mi SSE 8.1 mph - N/A   Overcast
8:53 PM 80.1 °F 85.1 °F 75.0 °F 85% 30.03 in 10.0 mi SE 8.1 mph - N/A   Overcast
9:01 PM 78.8 °F - 75.2 °F 89% 30.03 in 9.0 mi SE 9.2 mph - 0.00 in Rain Light Rain
9:53 PM 79.0 °F - 75.9 °F 90% 30.05 in 10.0 mi SE 5.8 mph - 0.02 in   Clear
10:53 PM 79.0 °F - 75.0 °F 88% 30.06 in 10.0 mi SE 6.9 mph - N/A   Scattered Clouds
11:53 PM 79.0 °F - 75.0 °F 88% 30.05 in 10.0 mi SE 9.2 mph - N/A   Clear